Lancaster, SC

10:28 PM EDT on August 19, 2017 (GMT -0400)
Lancaster County-McWhirter

Weather History for KLKR - January, 2012

Change the Weather History Date:

Wednesday, January 4, 2012

  Actual Average (KUZA) Record (KUZA)
Temperature  
Mean Temperature 30 °F -  
Max Temperature 46 °F 53 °F 76 °F (1950)
Min Temperature 15 °F 34 °F 10 °F (2002)
Degree Days  
Heating Degree Days 34    
Moisture  
Dew Point 12 °F    
Average Humidity 56    
Maximum Humidity 100    
Minimum Humidity 20    
Precipitation  
Precipitation 0.00 in - - ()
Sea Level Pressure  
Sea Level Pressure 30.28 in    
Wind  
Wind Speed 1 mph (SSW)    
Max Wind Speed 9 mph    
Max Gust Speed -    
Visibility 10 miles    
Events Rain    
Averages and records for this station are not official NWS values.
T = Trace of Precipitation, MM = Missing Value Source: NWS Daily Summary

Daily Weather History Graph

Daily Weather History Graph

Search for Another Location

Airport or City:

Trip Planner

Search our weather history database for the weather conditions in past years. The results will help you decide how hot, cold, wet, or windy it might be!

Date:

Astronomy

Jan. 04, 2012 Rise Set
Actual Time 7:31 AM EST 5:25 PM EST
Civil Twilight 7:03 AM EST 5:53 PM EST
Nautical Twilight 6:31 AM EST 6:24 PM EST
Astronomical Twilight 6:01 AM EST 6:55 PM EST
Moon 1:46 PM EST (1/4) 3:19 AM EST (1/4)
Length of Visible Light 10h 50m
Length of Day
9h 54m
Waxing Gibbous, 80% of the Moon is Illuminated
Jan 4
Waxing Gibbous
Jan 9
Full
Jan 16
Last Quarter
Jan 23
New
Jan 30
First Quarter

Hourly Weather History & Observations

Time (EST) Temp. Windchill Dew Point Humidity Pressure Visibility Wind Dir Wind Speed Gust Speed Precip Events Conditions
12:15 AM 19.4 °F - 12.2 °F 74% 30.35 in 10.0 mi Calm Calm - N/A   Clear
12:35 AM 19.4 °F - 14.0 °F 80% 30.35 in 10.0 mi Calm Calm - N/A   Clear
12:55 AM 17.6 °F - 14.0 °F 86% 30.36 in 10.0 mi Calm Calm - N/A   Clear
1:35 AM 17.6 °F - 14.0 °F 86% 30.35 in 10.0 mi Calm Calm - N/A   Clear
1:55 AM 17.6 °F - 14.0 °F 86% 30.34 in 10.0 mi Calm Calm - N/A   Clear
2:15 AM 17.6 °F - 14.0 °F 86% 30.35 in 10.0 mi Calm Calm - N/A   Clear
2:35 AM 17.6 °F - 14.0 °F 86% 30.36 in 10.0 mi Calm Calm - N/A Rain Light Freezing Rain
2:55 AM 17.6 °F - 14.0 °F 86% 30.35 in 10.0 mi Calm Calm - N/A Rain Light Freezing Rain
3:15 AM 15.8 °F - 14.0 °F 93% 30.36 in 10.0 mi Calm Calm - N/A   Clear
3:35 AM 17.6 °F - 14.0 °F 86% 30.36 in 10.0 mi Calm Calm - N/A   Clear
3:55 AM 15.8 °F - 14.0 °F 93% 30.36 in 10.0 mi Calm Calm - N/A   Clear
4:15 AM 15.8 °F - 14.0 °F 93% 30.36 in 10.0 mi Calm Calm - N/A   Clear
4:35 AM 15.8 °F - 14.0 °F 93% 30.36 in 10.0 mi Calm Calm - N/A   Clear
4:55 AM 15.8 °F - 14.0 °F 93% 30.37 in 10.0 mi Calm Calm - N/A   Clear
5:15 AM 15.8 °F - 15.8 °F 100% 30.37 in 10.0 mi Calm Calm - N/A   Clear
5:35 AM 15.8 °F - 15.8 °F 100% 30.37 in 10.0 mi Calm Calm - N/A   Clear
6:15 AM 15.8 °F - 15.8 °F 100% 30.38 in 10.0 mi Calm Calm - N/A Rain Light Freezing Rain
6:35 AM 15.8 °F - 15.8 °F 100% 30.38 in 10.0 mi Calm Calm - N/A   Clear
6:55 AM 15.8 °F - 15.8 °F 100% 30.38 in 10.0 mi Calm Calm - N/A   Clear
7:15 AM 15.8 °F - 15.8 °F 100% 30.38 in 10.0 mi Calm Calm - N/A Rain Light Freezing Rain
7:35 AM 15.8 °F - 14.0 °F 93% 30.38 in 10.0 mi Calm Calm - N/A Rain Light Freezing Rain
7:55 AM 15.8 °F - 15.8 °F 100% 30.39 in 10.0 mi Calm Calm - N/A Rain Light Freezing Rain
8:35 AM 17.6 °F - 17.6 °F 100% 30.39 in 10.0 mi Calm Calm - N/A   Clear
8:55 AM 23.0 °F - 19.4 °F 86% 30.39 in 10.0 mi Calm Calm - N/A   Clear
9:15 AM 26.6 °F - 15.8 °F 64% 30.40 in 10.0 mi Calm Calm - N/A   Clear
9:35 AM 28.4 °F - 12.2 °F 51% 30.40 in 10.0 mi Calm Calm - N/A   Clear
9:55 AM 32.0 °F 28.7 °F 10.4 °F 41% 30.40 in 10.0 mi South 3.5 mph - N/A   Clear
10:15 AM 32.0 °F - 10.4 °F 41% 30.39 in 10.0 mi Calm Calm - N/A   Clear
10:35 AM 33.8 °F 30.8 °F 10.4 °F 38% 30.38 in 10.0 mi South 3.5 mph - N/A   Clear
10:55 AM 35.6 °F 31.7 °F 8.6 °F 33% 30.37 in 10.0 mi SW 4.6 mph - N/A   Clear
11:15 AM 35.6 °F 30.7 °F 10.4 °F 35% 30.35 in 10.0 mi WSW 5.8 mph - N/A   Clear
11:35 AM 35.6 °F 32.8 °F 10.4 °F 35% 30.34 in 10.0 mi South 3.5 mph - N/A   Clear
11:55 AM 37.4 °F 32.8 °F 8.6 °F 30% 30.32 in 10.0 mi South 5.8 mph - N/A   Clear
12:15 PM 37.4 °F 32.8 °F 8.6 °F 30% 30.30 in 10.0 mi SW 5.8 mph - N/A Rain Light Rain
12:35 PM 39.2 °F 34.2 °F 6.8 °F 26% 30.28 in 10.0 mi South 6.9 mph - N/A Rain Light Rain
12:55 PM 41.0 °F 38.0 °F 6.8 °F 24% 30.27 in 10.0 mi SW 4.6 mph - N/A Rain Light Rain
1:15 PM 41.0 °F 35.2 °F 6.8 °F 24% 30.25 in 10.0 mi SW 9.2 mph - N/A   Clear
1:35 PM 42.8 °F 40.1 °F 6.8 °F 23% 30.24 in 10.0 mi South 4.6 mph - N/A   Clear
1:55 PM 42.8 °F 39.3 °F 6.8 °F 23% 30.23 in 10.0 mi SW 5.8 mph - N/A   Clear
2:15 PM 44.6 °F 41.4 °F 6.8 °F 21% 30.22 in 10.0 mi South 5.8 mph - N/A   Clear
2:55 PM 44.6 °F 43.1 °F 6.8 °F 21% 30.19 in 10.0 mi South 3.5 mph - N/A   Clear
3:15 PM 46.4 °F 44.3 °F 8.6 °F 22% 30.17 in 10.0 mi South 4.6 mph - N/A   Clear
3:35 PM 46.4 °F 42.9 °F 6.8 °F 20% 30.17 in 10.0 mi South 6.9 mph - N/A   Clear
3:55 PM 44.6 °F 40.7 °F 6.8 °F 21% 30.16 in 10.0 mi SSW 6.9 mph - N/A   Clear
4:15 PM 44.6 °F 41.4 °F 8.6 °F 23% 30.16 in 10.0 mi South 5.8 mph - N/A   Clear
4:35 PM 44.6 °F 43.1 °F 8.6 °F 23% 30.17 in 10.0 mi South 3.5 mph - N/A   Clear
4:55 PM 44.6 °F 43.1 °F 10.4 °F 25% 30.17 in 10.0 mi SSW 3.5 mph - N/A   Clear
5:15 PM 42.8 °F - 8.6 °F 25% 30.17 in 10.0 mi Calm Calm - N/A   Clear
5:35 PM 39.2 °F - 12.2 °F 33% 30.17 in 10.0 mi Calm Calm - N/A   Clear
5:55 PM 37.4 °F - 10.4 °F 33% 30.18 in 10.0 mi Calm Calm - N/A   Clear
6:15 PM 35.6 °F - 14.0 °F 41% 30.17 in 10.0 mi Calm Calm - N/A   Clear
6:35 PM 32.0 °F - 14.0 °F 48% 30.17 in 10.0 mi Calm Calm - N/A   Clear
6:55 PM 32.0 °F - 12.2 °F 44% 30.17 in 10.0 mi Calm Calm - N/A   Clear
7:15 PM 35.6 °F - 12.2 °F 38% 30.16 in 10.0 mi Calm Calm - N/A   Clear
7:35 PM 37.4 °F - 14.0 °F 38% 30.17 in 10.0 mi Calm Calm - N/A   Clear
7:55 PM 35.6 °F - 10.4 °F 35% 30.16 in 10.0 mi Calm Calm - N/A   Clear
8:15 PM 37.4 °F - 10.4 °F 33% 30.15 in 10.0 mi Calm Calm - N/A   Clear
8:35 PM 37.4 °F - 14.0 °F 38% 30.15 in 10.0 mi Calm Calm - N/A   Clear
8:55 PM 37.4 °F - 10.4 °F 33% 30.15 in 10.0 mi Calm Calm - N/A   Clear
9:15 PM 37.4 °F 34.9 °F 12.2 °F 36% 30.15 in 10.0 mi SSW 3.5 mph - N/A   Clear
9:35 PM 37.4 °F 34.9 °F 12.2 °F 36% 30.14 in 10.0 mi SW 3.5 mph - N/A   Clear
9:55 PM 37.4 °F 33.8 °F 12.2 °F 36% 30.15 in 10.0 mi SW 4.6 mph - N/A   Clear
10:15 PM 37.4 °F 34.9 °F 10.4 °F 33% 30.14 in 10.0 mi SW 3.5 mph - N/A   Clear
10:35 PM 37.4 °F 33.8 °F 10.4 °F 33% 30.14 in 10.0 mi SW 4.6 mph - N/A   Clear
10:55 PM 37.4 °F 33.8 °F 10.4 °F 33% 30.13 in 10.0 mi SW 4.6 mph - N/A   Clear
11:15 PM 37.4 °F - 10.4 °F 33% 30.12 in 10.0 mi Calm Calm - N/A   Clear
11:35 PM 35.6 °F - 10.4 °F 35% 30.12 in 10.0 mi Calm Calm - N/A   Clear
11:55 PM 35.6 °F - 10.4 °F 35% 30.12 in 10.0 mi Calm Calm - N/A   Clear